����������;��������(kVARh)
2015-06-24 00:00;0,2
2015-06-24 00:15;0
2015-06-24 00:30;0
2015-06-24 00:45;0
2015-06-24 01:00;0
2015-06-24 01:15;0
2015-06-24 01:30;0
2015-06-24 01:45;0
2015-06-24 02:00;0,45
2015-06-24 02:15;1,05
2015-06-24 02:30;0
2015-06-24 02:45;0
2015-06-24 03:00;0
2015-06-24 03:15;0
2015-06-24 03:30;0
2015-06-24 03:45;0
2015-06-24 04:00;0
2015-06-24 04:15;0
2015-06-24 04:30;0
2015-06-24 04:45;0
2015-06-24 05:00;0,05
2015-06-24 05:15;0
2015-06-24 05:30;0
2015-06-24 05:45;0
2015-06-24 06:00;0
2015-06-24 06:15;0
2015-06-24 06:30;0
2015-06-24 06:45;0,05
2015-06-24 07:00;0
2015-06-24 07:15;0
2015-06-24 07:30;0
2015-06-24 07:45;22,75
2015-06-24 08:00;19,55
2015-06-24 08:15;15,7
2015-06-24 08:30;11,95
2015-06-24 08:45;14,4
2015-06-24 09:00;16,75
2015-06-24 09:15;23,95
2015-06-24 09:30;32,5
2015-06-24 09:45;34,75
2015-06-24 10:00;33,6
2015-06-24 10:15;30,8
2015-06-24 10:30;31,8
2015-06-24 10:45;35,5
2015-06-24 11:00;45,6
2015-06-24 11:15;50,3
2015-06-24 11:30;49
2015-06-24 11:45;46,7
2015-06-24 12:00;48,75
2015-06-24 12:15;47,8
2015-06-24 12:30;46,55
2015-06-24 12:45;48,65
2015-06-24 13:00;50,5
2015-06-24 13:15;46,85
2015-06-24 13:30;44,35
2015-06-24 13:45;46,6
2015-06-24 14:00;47,15
2015-06-24 14:15;50,45
2015-06-24 14:30;47,3
2015-06-24 14:45;50,05
2015-06-24 15:00;50,95
2015-06-24 15:15;56,65
2015-06-24 15:30;55,35
2015-06-24 15:45;50,95
2015-06-24 16:00;46,55
2015-06-24 16:15;42,15
2015-06-24 16:30;40,4
2015-06-24 16:45;38,75
2015-06-24 17:00;42,05
2015-06-24 17:15;39,9
2015-06-24 17:30;33,2
2015-06-24 17:45;16,3
2015-06-24 18:00;14
2015-06-24 18:15;12,05
2015-06-24 18:30;9,3
2015-06-24 18:45;11,75
2015-06-24 19:00;13,25
2015-06-24 19:15;9,45
2015-06-24 19:30;10,7
2015-06-24 19:45;8,4
2015-06-24 20:00;7,4
2015-06-24 20:15;4,4
2015-06-24 20:30;1,9
2015-06-24 20:45;0,7
2015-06-24 21:00;5,3
2015-06-24 21:15;0,6
2015-06-24 21:30;0
2015-06-24 21:45;0,45
2015-06-24 22:00;0,25
2015-06-24 22:15;0
2015-06-24 22:30;0
2015-06-24 22:45;0
2015-06-24 23:00;0,1
2015-06-24 23:15;0,1
2015-06-24 23:30;2,5
2015-06-24 23:45;0
2015-06-25 00:00;0
2015-06-25 00:15;0,05
2015-06-25 00:30;0
2015-06-25 00:45;0
2015-06-25 01:00;0
2015-06-25 01:15;0
2015-06-25 01:30;0
2015-06-25 01:45;0
2015-06-25 02:00;0
2015-06-25 02:15;0
2015-06-25 02:30;0
2015-06-25 02:45;0
2015-06-25 03:00;0
2015-06-25 03:15;0
2015-06-25 03:30;0
2015-06-25 03:45;0
2015-06-25 04:00;0
2015-06-25 04:15;0
2015-06-25 04:30;0
2015-06-25 04:45;0
2015-06-25 05:00;0
2015-06-25 05:15;0
2015-06-25 05:30;0
2015-06-25 05:45;0
2015-06-25 06:00;0
2015-06-25 06:15;0
2015-06-25 06:30;0
2015-06-25 06:45;0
2015-06-25 07:00;0
2015-06-25 07:15;0,1
2015-06-25 07:30;0
2015-06-25 07:45;5,35
2015-06-25 08:00;7,4
2015-06-25 08:15;11,55
2015-06-25 08:30;8,7
2015-06-25 08:45;12,55
2015-06-25 09:00;20,25
2015-06-25 09:15;27,2
2015-06-25 09:30;23,55
2015-06-25 09:45;24,75
2015-06-25 10:00;24,75
2015-06-25 10:15;23,7
2015-06-25 10:30;26,55
2015-06-25 10:45;33
2015-06-25 11:00;38,05
2015-06-25 11:15;35,15
2015-06-25 11:30;31,15
2015-06-25 11:45;29,75
2015-06-25 12:00;32,85
2015-06-25 12:15;32,4
2015-06-25 12:30;24,85
2015-06-25 12:45;26,65
2015-06-25 13:00;28,5
2015-06-25 13:15;25,45
2015-06-25 13:30;30,9
2015-06-25 13:45;24,6
2015-06-25 14:00;28,35
2015-06-25 14:15;24,5
2015-06-25 14:30;27,1
2015-06-25 14:45;39,7
2015-06-25 15:00;36,2
2015-06-25 15:15;31,95
2015-06-25 15:30;30,85
2015-06-25 15:45;30,9
2015-06-25 16:00;27,4
2015-06-25 16:15;22,2
2015-06-25 16:30;16,05
2015-06-25 16:45;14,05
2015-06-25 17:00;14,4
2015-06-25 17:15;13,35
2015-06-25 17:30;15,65
2015-06-25 17:45;7,9
2015-06-25 18:00;6,7
2015-06-25 18:15;6,6
2015-06-25 18:30;4,8
2015-06-25 18:45;3,3
2015-06-25 19:00;7
2015-06-25 19:15;1,6
2015-06-25 19:30;0,9
2015-06-25 19:45;0,3
2015-06-25 20:00;0,95
2015-06-25 20:15;0,15
2015-06-25 20:30;0,4
2015-06-25 20:45;0,2
2015-06-25 21:00;0,05
2015-06-25 21:15;0
2015-06-25 21:30;0
2015-06-25 21:45;0
2015-06-25 22:00;0
2015-06-25 22:15;0
2015-06-25 22:30;0
2015-06-25 22:45;3,45
2015-06-25 23:00;0,15
2015-06-25 23:15;0,1
2015-06-25 23:30;0
2015-06-25 23:45;0
2015-06-26 00:00;0
2015-06-26 00:15;0
2015-06-26 00:30;0
2015-06-26 00:45;0,65
2015-06-26 01:00;0,05
2015-06-26 01:15;0
2015-06-26 01:30;0
2015-06-26 01:45;0
2015-06-26 02:00;0
2015-06-26 02:15;0
2015-06-26 02:30;0
2015-06-26 02:45;0
2015-06-26 03:00;0
2015-06-26 03:15;0
2015-06-26 03:30;0
2015-06-26 03:45;0
2015-06-26 04:00;0
2015-06-26 04:15;0
2015-06-26 04:30;0
2015-06-26 04:45;0
2015-06-26 05:00;0
2015-06-26 05:15;5,95
2015-06-26 05:30;3,35
2015-06-26 05:45;4,35
2015-06-26 06:00;2
2015-06-26 06:15;1,5
2015-06-26 06:30;3,9
2015-06-26 06:45;0,1
2015-06-26 07:00;0
2015-06-26 07:15;0
2015-06-26 07:30;2
2015-06-26 07:45;5,5
2015-06-26 08:00;12,85
2015-06-26 08:15;5,75
2015-06-26 08:30;4,5
2015-06-26 08:45;12,05
2015-06-26 09:00;8,1
2015-06-26 09:15;9,75
2015-06-26 09:30;13,55
2015-06-26 09:45;13,75
2015-06-26 10:00;20,9
2015-06-26 10:15;22,95
2015-06-26 10:30;22,6
2015-06-26 10:45;37,95
2015-06-26 11:00;48,7
2015-06-26 11:15;32,75
2015-06-26 11:30;30,65
2015-06-26 11:45;27,35
2015-06-26 12:00;33,45
2015-06-26 12:15;32,55
2015-06-26 12:30;32,65
2015-06-26 12:45;42,3
2015-06-26 13:00;46,1
2015-06-26 13:15;46,2
2015-06-26 13:30;46,5
2015-06-26 13:45;46,6
2015-06-26 14:00;47,5
2015-06-26 14:15;44,5
2015-06-26 14:30;48,05
2015-06-26 14:45;52,7
2015-06-26 15:00;47,05
2015-06-26 15:15;38,5
2015-06-26 15:30;30,6
2015-06-26 15:45;27,5
2015-06-26 16:00;21,05
2015-06-26 16:15;19,3
2015-06-26 16:30;20,5
2015-06-26 16:45;19,05
2015-06-26 17:00;12,5
2015-06-26 17:15;13,8
2015-06-26 17:30;11,35
2015-06-26 17:45;14,1
2015-06-26 18:00;6,25
2015-06-26 18:15;6,45
2015-06-26 18:30;5,5
2015-06-26 18:45;3,9
2015-06-26 19:00;4,05
2015-06-26 19:15;0,05
2015-06-26 19:30;0,6
2015-06-26 19:45;1
2015-06-26 20:00;0,1
2015-06-26 20:15;1,7
2015-06-26 20:30;0,1
2015-06-26 20:45;0
2015-06-26 21:00;0
2015-06-26 21:15;0
2015-06-26 21:30;1,55
2015-06-26 21:45;0,65
2015-06-26 22:00;0
2015-06-26 22:15;0
2015-06-26 22:30;0,05
2015-06-26 22:45;0,1
2015-06-26 23:00;3,6
2015-06-26 23:15;2,45
2015-06-26 23:30;2,25
2015-06-26 23:45;2,4
2015-06-27 00:00;4,7
2015-06-27 00:15;5,8
2015-06-27 00:30;4,3
2015-06-27 00:45;0,05
2015-06-27 01:00;0
2015-06-27 01:15;0
2015-06-27 01:30;0
2015-06-27 01:45;0
2015-06-27 02:00;0
2015-06-27 02:15;0,45
2015-06-27 02:30;0
2015-06-27 02:45;0
2015-06-27 03:00;0
2015-06-27 03:15;0
2015-06-27 03:30;0,1
2015-06-27 03:45;0
2015-06-27 04:00;0
2015-06-27 04:15;0
2015-06-27 04:30;0
2015-06-27 04:45;0
2015-06-27 05:00;0
2015-06-27 05:15;0
2015-06-27 05:30;0
2015-06-27 05:45;0
2015-06-27 06:00;0
2015-06-27 06:15;0
2015-06-27 06:30;0
2015-06-27 06:45;0
2015-06-27 07:00;0
2015-06-27 07:15;0
2015-06-27 07:30;0
2015-06-27 07:45;0
2015-06-27 08:00;0,9
2015-06-27 08:15;0,15
2015-06-27 08:30;1,85
2015-06-27 08:45;2,1
2015-06-27 09:00;3,4
2015-06-27 09:15;4,05
2015-06-27 09:30;3,4
2015-06-27 09:45;3,55
2015-06-27 10:00;3,4
2015-06-27 10:15;4,15
2015-06-27 10:30;2,15
2015-06-27 10:45;1,8
2015-06-27 11:00;6,5
2015-06-27 11:15;11,8
2015-06-27 11:30;8
2015-06-27 11:45;9,95
2015-06-27 12:00;6,9
2015-06-27 12:15;10,9
2015-06-27 12:30;14,4
2015-06-27 12:45;12,1
2015-06-27 13:00;8,55
2015-06-27 13:15;8,8
2015-06-27 13:30;6,2
2015-06-27 13:45;1,4
2015-06-27 14:00;2,45
2015-06-27 14:15;3,25
2015-06-27 14:30;5,6
2015-06-27 14:45;1,4
2015-06-27 15:00;1
2015-06-27 15:15;5,25
2015-06-27 15:30;4,75
2015-06-27 15:45;2,75
2015-06-27 16:00;2,15
2015-06-27 16:15;2,4
2015-06-27 16:30;6
2015-06-27 16:45;4,35
2015-06-27 17:00;11,65
2015-06-27 17:15;4,4
2015-06-27 17:30;4,9
2015-06-27 17:45;6,25
2015-06-27 18:00;6,75
2015-06-27 18:15;2,9
2015-06-27 18:30;0,3
2015-06-27 18:45;8,9
2015-06-27 19:00;4,35
2015-06-27 19:15;0
2015-06-27 19:30;0
2015-06-27 19:45;0,2
2015-06-27 20:00;0,75
2015-06-27 20:15;0
2015-06-27 20:30;0
2015-06-27 20:45;0
2015-06-27 21:00;0
2015-06-27 21:15;0
2015-06-27 21:30;0
2015-06-27 21:45;0
2015-06-27 22:00;0
2015-06-27 22:15;0,05
2015-06-27 22:30;0
2015-06-27 22:45;0
2015-06-27 23:00;0
2015-06-27 23:15;0,1
2015-06-27 23:30;0
2015-06-27 23:45;0
2015-06-28 00:00;0
2015-06-28 00:15;0
2015-06-28 00:30;0
2015-06-28 00:45;0
2015-06-28 01:00;0
2015-06-28 01:15;0
2015-06-28 01:30;0
2015-06-28 01:45;0
2015-06-28 02:00;0
2015-06-28 02:15;0
2015-06-28 02:30;0
2015-06-28 02:45;0,55
2015-06-28 03:00;0
2015-06-28 03:15;0
2015-06-28 03:30;0
2015-06-28 03:45;0,05
2015-06-28 04:00;0,55
2015-06-28 04:15;3
2015-06-28 04:30;0,15
2015-06-28 04:45;0,05
2015-06-28 05:00;0
2015-06-28 05:15;0,4
2015-06-28 05:30;0
2015-06-28 05:45;0,2
2015-06-28 06:00;4,3
2015-06-28 06:15;1,45
2015-06-28 06:30;1,85
2015-06-28 06:45;0,8
2015-06-28 07:00;0,25
2015-06-28 07:15;0,6
2015-06-28 07:30;2,6
2015-06-28 07:45;4,9
2015-06-28 08:00;0,95
2015-06-28 08:15;0,05
2015-06-28 08:30;0,1
2015-06-28 08:45;3,75
2015-06-28 09:00;3,1
2015-06-28 09:15;8,8
2015-06-28 09:30;3,5
2015-06-28 09:45;2,65
2015-06-28 10:00;3
2015-06-28 10:15;2,35
2015-06-28 10:30;2,4
2015-06-28 10:45;11,85
2015-06-28 11:00;7,25
2015-06-28 11:15;7,5
2015-06-28 11:30;7,4
2015-06-28 11:45;8,75
2015-06-28 12:00;12,6
2015-06-28 12:15;11,9
2015-06-28 12:30;4,7
2015-06-28 12:45;2,65
2015-06-28 13:00;5,35
2015-06-28 13:15;4,15
2015-06-28 13:30;6,55
2015-06-28 13:45;5,05
2015-06-28 14:00;4,1
2015-06-28 14:15;3,9
2015-06-28 14:30;4,5
2015-06-28 14:45;9,5
2015-06-28 15:00;7,15
2015-06-28 15:15;8,75
2015-06-28 15:30;8,15
2015-06-28 15:45;9,9
2015-06-28 16:00;13,6
2015-06-28 16:15;10,05
2015-06-28 16:30;8
2015-06-28 16:45;8,9
2015-06-28 17:00;12,1
2015-06-28 17:15;14,45
2015-06-28 17:30;11,6
2015-06-28 17:45;9,45
2015-06-28 18:00;8,45
2015-06-28 18:15;6,3
2015-06-28 18:30;5,55
2015-06-28 18:45;11
2015-06-28 19:00;9,9
2015-06-28 19:15;11,3
2015-06-28 19:30;10,75
2015-06-28 19:45;6,45
2015-06-28 20:00;2,2
2015-06-28 20:15;8,4
2015-06-28 20:30;7
2015-06-28 20:45;4,15
2015-06-28 21:00;5,8
2015-06-28 21:15;2,85
2015-06-28 21:30;2,9
2015-06-28 21:45;2,75
2015-06-28 22:00;1,6
2015-06-28 22:15;0,15
2015-06-28 22:30;0
2015-06-28 22:45;0,3
2015-06-28 23:00;1,2
2015-06-28 23:15;1,6
2015-06-28 23:30;5,5
2015-06-28 23:45;0,05
2015-06-29 00:00;0
2015-06-29 00:15;0
2015-06-29 00:30;0
2015-06-29 00:45;0
2015-06-29 01:00;0
2015-06-29 01:15;0
2015-06-29 01:30;0
2015-06-29 01:45;0
2015-06-29 02:00;0,05
2015-06-29 02:15;0
2015-06-29 02:30;0
2015-06-29 02:45;0
2015-06-29 03:00;0
2015-06-29 03:15;0
2015-06-29 03:30;0
2015-06-29 03:45;0
2015-06-29 04:00;0
2015-06-29 04:15;0
2015-06-29 04:30;0,15
2015-06-29 04:45;0
2015-06-29 05:00;0,05
2015-06-29 05:15;0
2015-06-29 05:30;0,2
2015-06-29 05:45;0
2015-06-29 06:00;0,15
2015-06-29 06:15;3,45
2015-06-29 06:30;0
2015-06-29 06:45;0,1
2015-06-29 07:00;0
2015-06-29 07:15;0,15
2015-06-29 07:30;0
2015-06-29 07:45;4,8
2015-06-29 08:00;18,4
2015-06-29 08:15;15,65
2015-06-29 08:30;8,95
2015-06-29 08:45;12,8
2015-06-29 09:00;1,8
2015-06-29 09:15;25
2015-06-29 09:30;39,15
2015-06-29 09:45;32,3
2015-06-29 10:00;19,6
2015-06-29 10:15;19,7
2015-06-29 10:30;21,3
2015-06-29 10:45;23
2015-06-29 11:00;20,6
2015-06-29 11:15;28,65
2015-06-29 11:30;28,35
2015-06-29 11:45;31,95
2015-06-29 12:00;23,65
2015-06-29 12:15;24,3
2015-06-29 12:30;24,45
2015-06-29 12:45;23,2
2015-06-29 13:00;33,05
2015-06-29 13:15;26,85
2015-06-29 13:30;24,95
2015-06-29 13:45;24,15
2015-06-29 14:00;32,25
2015-06-29 14:15;32,05
2015-06-29 14:30;25,55
2015-06-29 14:45;27,65
2015-06-29 15:00;33,4
2015-06-29 15:15;35,05
2015-06-29 15:30;26,15
2015-06-29 15:45;22,35
2015-06-29 16:00;30,45
2015-06-29 16:15;23,35
2015-06-29 16:30;28,35
2015-06-29 16:45;21,65
2015-06-29 17:00;18,35
2015-06-29 17:15;17,9
2015-06-29 17:30;20,05
2015-06-29 17:45;20,7
2015-06-29 18:00;13,2
2015-06-29 18:15;9,2
2015-06-29 18:30;4
2015-06-29 18:45;14,7
2015-06-29 19:00;17,2
2015-06-29 19:15;8,25
2015-06-29 19:30;3,5
2015-06-29 19:45;2,4
2015-06-29 20:00;1,45
2015-06-29 20:15;1,4
2015-06-29 20:30;0
2015-06-29 20:45;0
2015-06-29 21:00;0
2015-06-29 21:15;0
2015-06-29 21:30;0
2015-06-29 21:45;0
2015-06-29 22:00;0
2015-06-29 22:15;0
2015-06-29 22:30;0
2015-06-29 22:45;0
2015-06-29 23:00;0,35
2015-06-29 23:15;0
2015-06-29 23:30;0
2015-06-29 23:45;0
2015-06-30 00:00;0
2015-06-30 00:15;0
2015-06-30 00:30;0
2015-06-30 00:45;0
2015-06-30 01:00;0
2015-06-30 01:15;0
2015-06-30 01:30;0
2015-06-30 01:45;0
2015-06-30 02:00;0
2015-06-30 02:15;0
2015-06-30 02:30;0
2015-06-30 02:45;0
2015-06-30 03:00;0
2015-06-30 03:15;0
2015-06-30 03:30;0
2015-06-30 03:45;0
2015-06-30 04:00;0
2015-06-30 04:15;0
2015-06-30 04:30;0
2015-06-30 04:45;0
2015-06-30 05:00;0
2015-06-30 05:15;0
2015-06-30 05:30;0,25
2015-06-30 05:45;0
2015-06-30 06:00;0
2015-06-30 06:15;0
2015-06-30 06:30;0
2015-06-30 06:45;0
2015-06-30 07:00;0
2015-06-30 07:15;0
2015-06-30 07:30;0
2015-06-30 07:45;14,55
2015-06-30 08:00;30,65
2015-06-30 08:15;24,3
2015-06-30 08:30;11,2
2015-06-30 08:45;15,45
2015-06-30 09:00;16,5
2015-06-30 09:15;19,1
2015-06-30 09:30;19,75
2015-06-30 09:45;16,7
2015-06-30 10:00;27,9
2015-06-30 10:15;19,85
2015-06-30 10:30;29,95
2015-06-30 10:45;27,1
2015-06-30 11:00;31,75
2015-06-30 11:15;38,45
2015-06-30 11:30;34
2015-06-30 11:45;34,15
2015-06-30 12:00;33,25
2015-06-30 12:15;36,1
2015-06-30 12:30;38,2
2015-06-30 12:45;42,3
2015-06-30 13:00;43
2015-06-30 13:15;40,45
2015-06-30 13:30;38,6
2015-06-30 13:45;49,05
2015-06-30 14:00;43,5
2015-06-30 14:15;41,25
2015-06-30 14:30;48,35
2015-06-30 14:45;41,25
2015-06-30 15:00;50,95
2015-06-30 15:15;52,7
2015-06-30 15:30;40,6
2015-06-30 15:45;38,6
2015-06-30 16:00;30,95
2015-06-30 16:15;18,4
2015-06-30 16:30;19,85
2015-06-30 16:45;13,6
2015-06-30 17:00;13,55
2015-06-30 17:15;14,15
2015-06-30 17:30;15,5
2015-06-30 17:45;18
2015-06-30 18:00;10,55
2015-06-30 18:15;12,25
2015-06-30 18:30;10,25
2015-06-30 18:45;5,45
2015-06-30 19:00;7,1
2015-06-30 19:15;2,4
2015-06-30 19:30;2,35
2015-06-30 19:45;1,05
2015-06-30 20:00;0,45
2015-06-30 20:15;0
2015-06-30 20:30;1,75
2015-06-30 20:45;0
2015-06-30 21:00;0
2015-06-30 21:15;0,15
2015-06-30 21:30;0
2015-06-30 21:45;0
2015-06-30 22:00;0
2015-06-30 22:15;0
2015-06-30 22:30;0
2015-06-30 22:45;0
2015-06-30 23:00;0
2015-06-30 23:15;0
2015-06-30 23:30;0
2015-06-30 23:45;0

